Regional Weather Roundup
Issued by NWS

Home | Current Version | Previous Version | Graphics & Text | Print | Product List | Glossary On
Versions: 1 2 3 4 5 6 7 8 9 10 11 12 13 14 15 16 17 18 19 20 21 22 23 24 25 26 27 28 29 30 31 32 33 34 35 36 37 38 39 40 41 42 43 44 45 46 47 48 49 50
000
ASUS43 KMPX 281401
RWRMN
WEATHER ROUNDUP FOR MINNESOTA
NATIONAL WEATHER SERVICE TWIN CITIES/CHANHASSEN MN
900 AM CDT TUE APR 28 2015


NOTE: "FAIR" INDICATES FEW OR NO CLOUDS BELOW 12,000 FEET WITH NO
SIGNIFICANT WEATHER AND/OR OBSTRUCTIONS TO VISIBILITY. N/A MEANS
CURRENT SKY AND/OR WEATHER CONDITIONS ARE NOT AVAILABLE.

MNZ060>063-068>070-281500-
   Twin Cities Metro

CITY           SKY/WX    TMP DP  RH WIND       PRES   REMARKS
TWIN CITIES    PTSUNNY   54  34  46 NW12      30.17R
ST PAUL        MOSUNNY   53  37  54 CALM      30.17R
CRYSTAL        PTSUNNY   53  35  50 NW12      30.16S
LAKEVILLE      MOSUNNY   55  34  44 NW7       30.15S
EDEN PRAIRIE   PTSUNNY   53  36  52 N7        30.16S
SOUTH ST PAUL  MOSUNNY   56  33  40 NW5       30.15F
LAKE ELMO      FAIR      54  34  47 CALM      30.16F
$$
MNZ001>005-007-008-013>017-022>024-027-028-281500-
   Northwest Minnesota

CITY           SKY/WX    TMP DP  RH WIND       PRES   REMARKS
BEMIDJI        RAIN      43  41  94 N7        30.25R
HALLOCK        FOG       39  37  93 CALM      30.30S VSB<1/4
ROSEAU         MOSUNNY   43  37  81 CALM      30.29S
WARROAD        CLOUDY    43  39  87 CALM      30.29S
THIEF RVR FALL MOSUNNY   45  39  81 N8        30.30R
CROOKSTON      CLOUDY    41  41 100 CALM      30.31S
FOSSTON        CLOUDY    43  39  87 N8        30.28S
DETROIT LAKES  CLOUDY    45  45 100 N12       30.27R
MOORHEAD       CLOUDY    43  39  87 N14       30.31R
PARK RAPIDS    CLOUDY    47  44  90 N12       30.23R
MAHNOMEN       CLOUDY    45  42  90 N12       30.27R
$$
MNZ006-009>011-018-025>026-281500-
   North Central Minnesota

CITY           SKY/WX    TMP DP  RH WIND       PRES   REMARKS
BAUDETTE       CLOUDY    44  39  82 NW10      30.27S
FLAG ISLAND    MOSUNNY   43  37  81 NW8       30.26F
INTL FALLS     PTSUNNY   46  42  86 N12       30.24R
WASKISH        CLOUDY    43  41  93 CALM      30.27R
BIG FORK       CLOUDY    46  43  87 NW3       30.23R
LONGVILLE      PTSUNNY   50  45  81 N3        30.21S
GRAND RAPIDS   CLOUDY    50  43  76 N9        30.20S
CRANE LAKE     CLOUDY    46  45  93 N5        30.22S
ORR            CLOUDY    48  43  81 NW6       30.19R
COOK           CLOUDY    52  45  76 NW3       30.19S
WALKER         CLOUDY    44  43  95 NW5       30.23R
$$
MNZ012-019>021-037-281500-
   Northeast Minnesota

CITY           SKY/WX    TMP DP  RH WIND       PRES   REMARKS
DULUTH         PTSUNNY   55  32  41 N8        30.16R
ELY            PTSUNNY   50  41  71 N5        30.17S
HIBBING        CLOUDY    52  43  71 NW10      30.17S
EVELETH        CLOUDY    52  41  66 CALM      30.18S
DULUTH HARBOR  MOSUNNY   46  36  66 CALM      30.17S
TWO HARBORS    MOSUNNY   61  37  41 CALM      30.13S
SILVER BAY     MOSUNNY   63  36  36 N7        30.12F
GRAND MARAIS     N/A     38  33  82 SW6       30.14F
G MARAIS ARPRT MOSUNNY   55  27  33 NW8       30.14S
$$
MNZ029>031-032-039>041-046>048-054>057-064-281500-
   West Central Minnesota

CITY           SKY/WX    TMP DP  RH WIND       PRES   REMARKS
FERGUS FALLS   CLOUDY    45  45 100 N16G22    30.27R FOG
WHEATON        CLOUDY    45  43  93 NW17      30.28S
MORRIS         CLOUDY    46  46 100 NW14      30.22S FOG
ALEXANDRIA     CLOUDY    50  45  83 N7        30.21F
ELBOW LAKE     CLOUDY    45  45  99 N12       30.24R FOG
WADENA         PTSUNNY   48  45  87 N8        30.22R
GLENWOOD       CLOUDY    52  45  76 N8        30.21S
APPLETON       CLOUDY    50  46  87 NW16      30.23S
BENSON         CLOUDY    50  45  81 N7        30.21F
ORTONVILLE     CLOUDY    46  43  87 NW12G22   30.25R
MADISON        PTSUNNY   50  45  81 N16G22    30.24R
WILLMAR        FAIR      54  45  71 N10       30.20F
$$
MNZ033>034-036-042>043-049>051-058-059-281500-
   Central Minnesota

CITY           SKY/WX    TMP DP  RH WIND       PRES   REMARKS
ST CLOUD       LGT RAIN  53  43  68 N12G20    30.17S
SAUK CENTRE    PTSUNNY   52  45  77 N8        30.20S
PAYNESVILLE    CLOUDY    51  42  72 NW7       30.19S
AITKIN         CLOUDY    54  45  71 N6        30.18S
PINE RIVER     CLOUDY    48  45  87 N7        30.23F
BRAINERD       CLOUDY    50  45  83 N8        30.21S
STAPLES        CLOUDY    48  45  87 N6        30.21S
LONG PRAIRIE   FAIR      50  45  81 NW8       30.20S
LITTLE FALLS   CLOUDY    50  43  76 N5        30.19F
LITCHFIELD     CLOUDY    55  43  62 N6        30.19S
BUFFALO        CLOUDY    54  40  59 N8        30.19R
MAPLE LAKE     CLOUDY    55  45  68 N9        30.19S
$$
MNZ037-044-045-052-053-281500-
   East Central Minnesota

CITY           SKY/WX    TMP DP  RH WIND       PRES   REMARKS
PRINCETON      CLOUDY    54  43  66 N14       30.18F
MORA           CLOUDY    50  37  62 NW10      30.19S
CAMBRIDGE      PTSUNNY   55  37  50 NW8       30.16R
RUSH CITY      MOSUNNY   49  33  54 N5        30.18R
MOOSE LAKE     PTSUNNY   52  36  54 CALM      30.16S
HINCKLEY       FAIR      52  32  46 N10       30.17R
CLOQUET        PTSUNNY   50  30  46 NW8       30.16S
MCGREGOR       CLOUDY    52  43  71 N6        30.19S
$$
MNZ071>073-080-081-089-090-097-098-281500-
   Southwest Minnesota

CITY           SKY/WX    TMP DP  RH WIND       PRES   REMARKS
MONTEVIDEO     CLOUDY    50  45  81 N13G18    30.23R
GRANITE FALLS  PTSUNNY   50  43  78 NW17      30.22S
CANBY          CLOUDY    49  45  84 NW14G20   30.25S
MARSHALL       PTSUNNY   50  39  66 N18       30.22R
REDWOOD FALLS  CLOUDY    52  42  69 W10       30.19S
OLIVIA         CLOUDY    52  41  66 N8        30.18S
PIPESTONE      PTSUNNY   52  43  71 VRB7      30.22R
WINDOM         PTSUNNY   54  43  66 N15       30.20S
WORTHINGTON    PTSUNNY   52  39  62 N12       30.21F
JACKSON        MOSUNNY   52  39  62 NW10      30.20S
TRACY          CLOUDY    53  44  71 NW13      30.22S
SLAYTON        PTSUNNY   52  43  73 N3        30.22S
$$
MNZ065>067-074>077-082>085-091>093-281500-
   South Central Minnesota

CITY           SKY/WX    TMP DP  RH WIND       PRES   REMARKS
MANKATO        MOSUNNY   52  32  46 NW8       30.18F
NEW ULM        PTSUNNY   50  37  62 NW8       30.19S
ST JAMES       MOSUNNY   52  37  58 NW12      30.20S
FAIRMONT       MOSUNNY   54  37  54 NW9       30.18S
GLENCOE        CLOUDY    55  42  63 N8        30.17S
FARIBAULT      MOSUNNY   55  34  44 W5        30.16S
OWATONNA       SUNNY     55  30  38 SW5       30.16F
WASECA         SUNNY     52  34  50 W6        30.19R
ALBERT LEA     SUNNY     57  34  41 CALM      30.17F
$$
MNZ078>079-086>088-094>096-281500-
   Southeast Minnesota

CITY           SKY/WX    TMP DP  RH WIND       PRES   REMARKS
ROCHESTER      SUNNY     58  32  37 W5        30.17F
RED WING       SUNNY     54  37  54 SE3       30.14F
STANTON        SUNNY     55  33  44 CALM      30.15S
DODGE CENTER   SUNNY     57  30  35 W5        30.16F
WINONA         SUNNY     50  37  62 SE6       30.17F
AUSTIN         SUNNY     55  30  38 CALM      30.16F
PRESTON        SUNNY     54  34  46 CALM      30.17F
$$
ABBREVIATIONS USED IN REMARKS
   TC - TEMPERATURES IN CELSIUS
  WCI - WIND CHILL INDEX
   HX - HEAT INDEX
  VSB - VISIBILITY
$$



USA.gov is the U.S. government's official web portal to all federal, state and local government web resources and services.